Location: Fauquembergues
(50.6005°N, 2.0987°E)
Time: 21:11:32
(UTC+00:00)

Cosmos 1743 - Pass Details

Date: 14 July 2020
Orbit: 511 x 526 km, 82.6° (Epoch: 14 August)

Event Time Altitude Azimuth Distance (km) Brightness Sun altitude
Exits shadow 03:02:19 - 191° (S) 2,116 5.3 -7.1°
Reaches altitude 10° 03:03:14 10° 191° (SSW) 1,737 4.9 -7.0°
Maximum altitude 03:07:03 83° 279° (W) 527 2.7 -6.6°
Drops below altitude 10° 03:10:55 10° 9° (N) 1,761 6.3 -6.2°
Sets 03:13:04 0° 10° (N) 2,656 7.3 -5.9°
